Weather History for Emporia, VA

Change the Weather History Date:

Thursday, January 30, 2014

  Actual Average Record
Temperature  
Mean Temperature 16 °F -  
Max Temperature 35 °F 52 °F 71 °F (1989)
Min Temperature -4 °F 25 °F -4 °F (2014)
Degree Days  
Heating Degree Days 50    
Moisture  
Dew Point 7 °F    
Average Humidity 68    
Maximum Humidity 93    
Minimum Humidity 35    
Precipitation  
Precipitation 0.00 in - - ()
Sea Level Pressure  
Sea Level Pressure 30.37 in    
Wind  
Wind Speed 1 mph (ENE)    
Max Wind Speed 9 mph    
Max Gust Speed -    
Visibility 10 miles    
Events      
Averages and records for this station are not official NWS values.
T = Trace of Precipitation, MM = Missing Value Source: NWS Daily Summary

Daily Weather History Graph

Daily Weather History Graph

Search for Another Location

Airport:

Trip Planner

Search our weather history database for the weather conditions in past years. The results will help you decide how hot, cold, wet, or windy it might be!

Date:

Astronomy

Jan. 30, 2014 Rise Set
Actual Time 7:13 AM EST 5:33 PM EST
Civil Twilight 6:46 AM EST 6:00 PM EST
Nautical Twilight 6:15 AM EST 6:31 PM EST
Astronomical Twilight 5:44 AM EST 7:02 PM EST
Moon 6:38 AM EST (1/30) 5:41 PM EST (1/30)
Length of Visible Light 11h 14m
Length of Day
10h 20m
Waning Crescent, 0% of the Moon is Illuminated
Jan 30
Waning Crescent
Jan 30
New
Feb 6
First Quarter
Feb 14
Full
Feb 22
Last Quarter

Hourly Weather History & Observations

Time (EST) Temp. Windchill Dew Point Humidity Pressure Visibility Wind Dir Wind Speed Gust Speed Precip Events Conditions
12:15 AM 5.0 °F - 1.4 °F 85% 30.40 in 10.0 mi Calm Calm - N/A   Clear
12:35 AM 8.6 °F - 5.0 °F 85% 30.41 in 10.0 mi Calm Calm - N/A   Clear
12:55 AM 3.2 °F - 1.4 °F 92% 30.40 in 10.0 mi Calm Calm - N/A   Clear
1:15 AM 3.2 °F - -0.4 °F 85% 30.40 in 10.0 mi Calm Calm - N/A   Clear
1:35 AM 3.2 °F - -0.4 °F 85% 30.41 in 10.0 mi Calm Calm - N/A   Clear
1:55 AM 5.0 °F - 1.4 °F 85% 30.41 in 7.0 mi Calm Calm - N/A   Clear
2:15 AM 1.4 °F - -4.0 °F 78% 30.41 in 10.0 mi Calm Calm - N/A   Clear
2:35 AM 1.4 °F - -2.2 °F 85% 30.41 in 10.0 mi Calm Calm - N/A   Clear
2:55 AM 3.2 °F - -0.4 °F 85% 30.41 in 10.0 mi Calm Calm - N/A   Clear
3:15 AM -2.2 °F - -5.8 °F 85% 30.41 in 10.0 mi Calm Calm - N/A   Clear
3:35 AM -0.4 °F - -5.8 °F 78% 30.42 in 10.0 mi Calm Calm - N/A   Clear
3:55 AM 1.4 °F - -4.0 °F 78% 30.42 in 10.0 mi Calm Calm - N/A   Clear
4:15 AM -0.4 °F - -4.0 °F 85% 30.43 in 10.0 mi Calm Calm - N/A   Clear
4:35 AM -2.2 °F - -7.6 °F 78% 30.42 in 10.0 mi Calm Calm - N/A   Clear
4:55 AM -0.4 °F - -5.8 °F 78% 30.42 in 10.0 mi Calm Calm - N/A   Clear
5:15 AM -0.4 °F - -5.8 °F 78% 30.42 in 10.0 mi Calm Calm - N/A   Clear
5:55 AM -2.2 °F - -7.6 °F 78% 30.44 in 10.0 mi Calm Calm - N/A   Clear
6:15 AM -4.0 °F - -7.6 °F 85% 30.45 in 10.0 mi Calm Calm - N/A   Clear
6:35 AM -4.0 °F - -7.6 °F 85% 30.45 in 10.0 mi Calm Calm - N/A   Clear
7:35 AM -4.0 °F - -7.6 °F 85% 30.46 in 10.0 mi Calm Calm - N/A   Clear
7:55 AM -2.2 °F - -5.8 °F 85% 30.46 in 10.0 mi Calm Calm - N/A   Clear
8:15 AM -0.4 °F - -4.0 °F 85% 30.47 in 10.0 mi Calm Calm - N/A   Clear
8:35 AM 3.2 °F -4.2 °F -0.4 °F 85% 30.47 in 10.0 mi NW 3.5 mph - N/A   Clear
8:55 AM 8.6 °F - 5.0 °F 85% 30.48 in 10.0 mi Calm Calm - N/A   Clear
9:15 AM 12.2 °F 6.1 °F 10.4 °F 92% 30.47 in 10.0 mi NNW 3.5 mph - N/A   Clear
9:35 AM 14.0 °F - 12.2 °F 93% 30.48 in 10.0 mi Calm Calm - N/A   Clear
9:55 AM 17.6 °F 10.7 °F 14.0 °F 86% 30.48 in 10.0 mi NNE 4.6 mph - N/A   Clear
10:15 AM 23.0 °F 14.7 °F 10.4 °F 59% 30.48 in 10.0 mi ENE 6.9 mph - N/A   Clear
10:35 AM 24.8 °F 15.3 °F 8.6 °F 50% 30.48 in 10.0 mi ENE 9.2 mph - N/A   Clear
10:55 AM 26.6 °F 19.1 °F 10.4 °F 51% 30.47 in 10.0 mi NE 6.9 mph - N/A   Clear
11:15 AM 28.4 °F 21.2 °F 12.2 °F 51% 30.46 in 10.0 mi East 6.9 mph - N/A   Clear
11:35 AM 30.2 °F 25.4 °F 12.2 °F 47% 30.45 in 10.0 mi NE 4.6 mph - N/A   Clear
11:55 AM 30.2 °F 26.7 °F 12.2 °F 47% 30.44 in 10.0 mi East 3.5 mph - N/A   Clear
12:15 PM 30.2 °F - 12.2 °F 47% 30.42 in 10.0 mi Calm Calm - N/A   Clear
12:35 PM 32.0 °F 28.7 °F 12.2 °F 44% 30.41 in 10.0 mi ESE 3.5 mph - N/A   Clear
12:55 PM 32.0 °F 26.4 °F 12.2 °F 44% 30.39 in 10.0 mi ESE 5.8 mph - N/A   Clear
1:15 PM 32.0 °F 28.7 °F 12.2 °F 44% 30.38 in 10.0 mi East 3.5 mph - N/A   Clear
1:35 PM 32.0 °F - 10.4 °F 41% 30.37 in 10.0 mi Calm Calm - N/A   Clear
1:55 PM 32.0 °F - 10.4 °F 41% 30.36 in 10.0 mi Calm Calm - N/A   Clear
2:15 PM 33.8 °F 29.6 °F 10.4 °F 38% 30.36 in 10.0 mi ESE 4.6 mph - N/A   Clear
2:35 PM 33.8 °F - 10.4 °F 38% 30.35 in 10.0 mi Calm Calm - N/A   Clear
2:55 PM 33.8 °F 30.8 °F 10.4 °F 38% 30.35 in 10.0 mi East 3.5 mph - N/A   Clear
3:15 PM 33.8 °F - 10.4 °F 38% 30.34 in 10.0 mi Calm Calm - N/A   Clear
3:35 PM 35.6 °F 31.7 °F 10.4 °F 35% 30.34 in 10.0 mi East 4.6 mph - N/A   Clear
3:55 PM 35.6 °F 31.7 °F 10.4 °F 35% 30.33 in 10.0 mi East 4.6 mph - N/A   Clear
4:15 PM 33.8 °F 30.8 °F 10.4 °F 38% 30.33 in 10.0 mi ENE 3.5 mph - N/A   Clear
4:35 PM 33.8 °F 30.8 °F 10.4 °F 38% 30.32 in 10.0 mi ENE 3.5 mph - N/A   Clear
4:55 PM 33.8 °F 29.6 °F 10.4 °F 38% 30.32 in 10.0 mi ENE 4.6 mph - N/A   Clear
5:15 PM 32.0 °F 27.5 °F 10.4 °F 41% 30.31 in 10.0 mi ENE 4.6 mph - N/A   Clear
5:35 PM 32.0 °F 28.7 °F 10.4 °F 41% 30.30 in 10.0 mi ENE 3.5 mph - N/A   Clear
5:55 PM 26.6 °F - 12.2 °F 55% 30.29 in 10.0 mi Calm Calm - N/A   Clear
6:15 PM 24.8 °F - 14.0 °F 64% 30.29 in 10.0 mi Calm Calm - N/A   Clear
6:35 PM 23.0 °F - 15.8 °F 74% 30.29 in 10.0 mi Calm Calm - N/A   Clear
6:55 PM 21.2 °F - 14.0 °F 74% 30.28 in 10.0 mi Calm Calm - N/A   Clear
7:15 PM 21.2 °F - 14.0 °F 74% 30.28 in 10.0 mi Calm Calm - N/A   Clear
7:35 PM 19.4 °F - 12.2 °F 74% 30.27 in 10.0 mi Calm Calm - N/A   Clear
7:55 PM 21.2 °F - 12.2 °F 68% 30.28 in 10.0 mi Calm Calm - N/A   Clear
8:15 PM 19.4 °F - 12.2 °F 74% 30.30 in 10.0 mi Calm Calm - N/A   Clear
8:35 PM 19.4 °F - 12.2 °F 74% 30.29 in 10.0 mi Calm Calm - N/A   Clear
8:55 PM 17.6 °F - 12.2 °F 79% 30.28 in 10.0 mi Calm Calm - N/A   Clear
9:15 PM 17.6 °F - 10.4 °F 73% 30.28 in 10.0 mi Calm Calm - N/A   Clear
9:35 PM 14.0 °F - 10.4 °F 86% 30.28 in 10.0 mi Calm Calm - N/A   Clear
9:55 PM 15.8 °F - 10.4 °F 79% 30.28 in 10.0 mi Calm Calm - N/A   Scattered Clouds
10:15 PM 14.0 °F - 10.4 °F 86% 30.28 in 10.0 mi Calm Calm - N/A   Clear
10:35 PM 15.8 °F - 12.2 °F 86% 30.28 in 10.0 mi Calm Calm - N/A   Scattered Clouds
10:55 PM 17.6 °F - 12.2 °F 79% 30.28 in 10.0 mi Calm Calm - N/A   Mostly Cloudy
11:15 PM 19.4 °F - 14.0 °F 80% 30.29 in 10.0 mi Calm Calm - N/A   Overcast
11:35 PM 19.4 °F - 12.2 °F 74% 30.27 in 10.0 mi Calm Calm - N/A   Mostly Cloudy
11:55 PM 17.6 °F - 12.2 °F 79% 30.26 in 10.0 mi Calm Calm - N/A   Scattered Clouds